Time,TemperatureF,DewpointF,PressureIn,WindDirection,WindDirectionDegrees,WindSpeedMPH,WindSpeedGustMPH,Humidity,HourlyPrecipIn,Conditions,Clouds,dailyrainin,SoftwareType,DateUTC
2013-04-21 00:01:00,57.7,40.7,29.18,ESE,119,5.4,11.9,53,0.00,,,0.00,LWC V2.10 B1813,2013-04-21 05:01:00,
2013-04-21 00:06:00,57.6,40.6,29.18,SE,138,6.3,10.1,53,0.00,,,0.00,LWC V2.10 B1813,2013-04-21 05:06:00,
2013-04-21 00:11:00,57.6,41.0,29.18,SE,140,9.6,12.3,54,0.00,,,0.00,LWC V2.10 B1813,2013-04-21 05:11:00,
2013-04-21 00:16:00,57.2,41.2,29.18,SE,139,10.5,11.0,55,0.00,,,0.00,LWC V2.10 B1813,2013-04-21 05:16:00,
2013-04-21 00:21:00,57.0,41.5,29.18,ESE,120,12.8,12.8,56,0.00,,,0.00,LWC V2.10 B1813,2013-04-21 05:21:00,
2013-04-21 00:26:00,56.8,41.3,29.18,East,88,6.3,12.3,56,0.00,,,0.00,LWC V2.10 B1813,2013-04-21 05:26:00,
2013-04-21 00:31:00,56.8,41.8,29.18,East,98,8.3,8.3,57,0.00,,,0.00,LWC V2.10 B1813,2013-04-21 05:31:00,
2013-04-21 00:36:00,56.8,41.8,29.18,ESE,118,10.5,13.6,57,0.00,,,0.00,LWC V2.10 B1813,2013-04-21 05:36:00,
2013-04-21 00:41:00,56.7,41.6,29.18,East,83,8.3,14.1,57,0.00,,,0.00,LWC V2.10 B1813,2013-04-21 05:41:00,
2013-04-21 00:46:00,56.5,41.9,29.18,East,84,6.3,14.1,58,0.00,,,0.00,LWC V2.10 B1813,2013-04-21 05:46:00,
2013-04-21 00:51:00,56.5,41.9,29.18,ENE,76,6.3,12.3,58,0.00,,,0.00,LWC V2.10 B1813,2013-04-21 05:51:00,
2013-04-21 00:56:00,56.3,41.7,29.18,ENE,69,7.6,7.6,58,0.00,,,0.00,LWC V2.10 B1813,2013-04-21 05:56:00,
2013-04-21 01:01:00,56.3,42.2,29.18,SE,141,6.7,11.0,59,0.00,,,0.00,LWC V2.10 B1813,2013-04-21 06:01:00,
2013-04-21 01:06:00,56.1,42.0,29.18,East,90,7.6,11.0,59,0.00,,,0.00,LWC V2.10 B1813,2013-04-21 06:06:00,
2013-04-21 01:11:00,55.9,42.3,29.18,ESE,122,5.4,8.3,60,0.00,,,0.00,LWC V2.10 B1813,2013-04-21 06:11:00,
2013-04-21 01:16:00,55.9,41.8,29.18,East,97,6.3,8.3,59,0.00,,,0.00,LWC V2.10 B1813,2013-04-21 06:16:00,
2013-04-21 01:21:00,55.8,42.1,29.18,East,89,6.7,9.2,60,0.00,,,0.00,LWC V2.10 B1813,2013-04-21 06:21:00,
2013-04-21 01:26:00,55.6,41.9,29.18,SSE,154,8.3,11.0,60,0.00,,,0.00,LWC V2.10 B1813,2013-04-21 06:26:00,
2013-04-21 01:31:00,55.6,41.9,29.18,East,96,9.6,14.5,60,0.00,,,0.00,LWC V2.10 B1813,2013-04-21 06:31:00,
2013-04-21 01:36:00,55.4,42.2,29.18,ESE,106,8.1,8.7,61,0.00,,,0.00,LWC V2.10 B1813,2013-04-21 06:36:00,
2013-04-21 01:41:00,55.2,42.4,29.18,ENE,72,5.4,9.6,62,0.00,,,0.00,LWC V2.10 B1813,2013-04-21 06:41:00,
2013-04-21 01:46:00,55.2,42.4,29.20,ENE,72,6.3,8.3,62,0.00,,,0.00,LWC V2.10 B1813,2013-04-21 06:46:00,
2013-04-21 01:51:00,54.9,42.1,29.20,ESE,102,11.4,11.4,62,0.00,,,0.00,LWC V2.10 B1813,2013-04-21 06:51:00,
2013-04-21 01:56:00,54.9,42.5,29.20,ESE,115,5.8,8.3,63,0.00,,,0.00,LWC V2.10 B1813,2013-04-21 06:56:00,
2013-04-21 02:01:00,54.7,42.3,29.20,East,85,5.4,8.3,63,0.00,,,0.00,LWC V2.10 B1813,2013-04-21 07:01:00,
2013-04-21 02:06:00,54.5,42.6,29.20,East,93,3.6,8.1,64,0.00,,,0.00,LWC V2.10 B1813,2013-04-21 07:06:00,
2013-04-21 02:11:00,54.5,42.6,29.20,ESE,115,5.4,6.7,64,0.00,,,0.00,LWC V2.10 B1813,2013-04-21 07:11:00,
2013-04-21 02:16:00,54.3,42.4,29.20,ENE,74,4.0,5.8,64,0.00,,,0.00,LWC V2.10 B1813,2013-04-21 07:16:00,
2013-04-21 02:21:00,54.1,42.2,29.20,East,82,3.6,6.3,64,0.00,,,0.00,LWC V2.10 B1813,2013-04-21 07:21:00,
2013-04-21 02:26:00,54.1,42.6,29.20,ESE,119,3.1,4.0,65,0.00,,,0.00,LWC V2.10 B1813,2013-04-21 07:26:00,
2013-04-21 02:31:00,54.0,42.5,29.20,ESE,122,5.4,5.8,65,0.00,,,0.00,LWC V2.10 B1813,2013-04-21 07:31:00,
2013-04-21 02:36:00,54.0,42.9,29.20,East,88,5.8,6.3,66,0.00,,,0.00,LWC V2.10 B1813,2013-04-21 07:36:00,
2013-04-21 02:41:00,53.8,42.7,29.20,East,99,6.3,8.7,66,0.00,,,0.00,LWC V2.10 B1813,2013-04-21 07:41:00,
2013-04-21 02:46:00,53.8,42.7,29.20,ESE,104,3.1,9.6,66,0.00,,,0.00,LWC V2.10 B1813,2013-04-21 07:46:00,
2013-04-21 02:51:00,53.6,42.5,29.20,SE,126,4.0,5.8,66,0.00,,,0.00,LWC V2.10 B1813,2013-04-21 07:51:00,
2013-04-21 02:56:00,53.4,42.3,29.20,East,85,2.7,3.6,66,0.00,,,0.00,LWC V2.10 B1813,2013-04-21 07:56:00,
2013-04-21 03:01:00,53.4,42.3,29.20,NE,35,5.4,5.4,66,0.00,,,0.00,LWC V2.10 B1813,2013-04-21 08:01:00,
2013-04-21 03:06:00,53.1,42.0,29.20,ESE,102,0.0,3.6,66,0.00,,,0.00,LWC V2.10 B1813,2013-04-21 08:06:00,
2013-04-21 03:11:00,53.1,42.0,29.20,ENE,71,3.1,3.1,66,0.00,,,0.00,LWC V2.10 B1813,2013-04-21 08:11:00,
2013-04-21 03:16:00,52.9,42.2,29.20,ESE,110,2.7,5.4,67,0.00,,,0.00,LWC V2.10 B1813,2013-04-21 08:16:00,
2013-04-21 03:21:00,52.9,42.2,29.20,ESE,103,2.7,6.7,67,0.00,,,0.00,LWC V2.10 B1813,2013-04-21 08:21:00,
2013-04-21 03:26:00,52.7,42.1,29.20,East,80,5.4,7.6,67,0.00,,,0.00,LWC V2.10 B1813,2013-04-21 08:26:00,
2013-04-21 03:31:00,52.7,42.1,29.20,East,95,3.1,5.4,67,0.00,,,0.00,LWC V2.10 B1813,2013-04-21 08:31:00,
2013-04-21 03:36:00,52.5,41.9,29.20,SE,125,3.1,4.0,67,0.00,,,0.00,LWC V2.10 B1813,2013-04-21 08:36:00,
2013-04-21 03:41:00,52.5,41.9,29.20,East,79,3.1,6.3,67,0.00,,,0.00,LWC V2.10 B1813,2013-04-21 08:41:00,
2013-04-21 03:46:00,52.3,41.7,29.20,ESE,105,5.4,6.3,67,0.00,,,0.00,LWC V2.10 B1813,2013-04-21 08:46:00,
2013-04-21 03:51:00,52.3,42.1,29.20,East,85,5.4,7.2,68,0.00,,,0.00,LWC V2.10 B1813,2013-04-21 08:51:00,
2013-04-21 03:56:00,52.3,42.1,29.20,East,91,3.6,5.8,68,0.00,,,0.00,LWC V2.10 B1813,2013-04-21 08:56:00,
2013-04-21 04:01:00,52.3,42.1,29.20,ESE,111,3.1,4.0,68,0.00,,,0.00,LWC V2.10 B1813,2013-04-21 09:01:00,
2013-04-21 04:06:00,52.2,42.3,29.20,SE,124,3.6,6.3,69,0.00,,,0.00,LWC V2.10 B1813,2013-04-21 09:06:00,
2013-04-21 04:11:00,52.2,42.3,29.20,East,88,5.4,6.7,69,0.00,,,0.00,LWC V2.10 B1813,2013-04-21 09:11:00,
2013-04-21 04:16:00,52.2,42.3,29.18,ENE,58,5.8,6.3,69,0.00,,,0.00,LWC V2.10 B1813,2013-04-21 09:16:00,
2013-04-21 04:21:00,52.0,42.1,29.18,ESE,123,6.3,6.3,69,0.00,,,0.00,LWC V2.10 B1813,2013-04-21 09:21:00,
2013-04-21 04:26:00,52.2,42.3,29.18,East,93,3.6,5.8,69,0.00,,,0.00,LWC V2.10 B1813,2013-04-21 09:26:00,
2013-04-21 04:31:00,52.2,42.3,29.20,SSE,147,4.0,5.8,69,0.00,,,0.00,LWC V2.10 B1813,2013-04-21 09:31:00,
2013-04-21 04:36:00,52.2,42.3,29.20,East,89,4.0,6.3,69,0.00,,,0.00,LWC V2.10 B1813,2013-04-21 09:36:00,
2013-04-21 04:41:00,52.2,42.7,29.20,ESE,106,4.0,6.3,70,0.00,,,0.00,LWC V2.10 B1813,2013-04-21 09:41:00,
2013-04-21 04:46:00,52.0,42.5,29.20,East,93,2.7,8.1,70,0.00,,,0.00,LWC V2.10 B1813,2013-04-21 09:46:00,
2013-04-21 04:51:00,51.8,42.3,29.20,East,88,3.1,6.3,70,0.00,,,0.00,LWC V2.10 B1813,2013-04-21 09:51:00,
2013-04-21 04:56:00,51.8,42.7,29.20,East,92,4.0,5.8,71,0.00,,,0.00,LWC V2.10 B1813,2013-04-21 09:56:00,
2013-04-21 05:01:00,51.8,42.7,29.20,East,81,4.0,5.8,71,0.00,,,0.00,LWC V2.10 B1813,2013-04-21 10:01:00,
2013-04-21 05:06:00,51.8,42.7,29.20,ESE,116,0.0,3.6,71,0.00,,,0.00,LWC V2.10 B1813,2013-04-21 10:06:00,
2013-04-21 05:11:00,51.8,42.7,29.20,ENE,76,7.6,7.6,71,0.00,,,0.00,LWC V2.10 B1813,2013-04-21 10:11:00,
2013-04-21 05:16:00,51.8,42.7,29.20,East,91,5.4,8.1,71,0.00,,,0.00,LWC V2.10 B1813,2013-04-21 10:16:00,
2013-04-21 05:21:00,52.0,42.9,29.20,SE,129,5.8,6.3,71,0.00,,,0.00,LWC V2.10 B1813,2013-04-21 10:21:00,
2013-04-21 05:26:00,52.0,43.2,29.20,SSE,153,3.1,6.3,72,0.00,,,0.00,LWC V2.10 B1813,2013-04-21 10:26:00,
2013-04-21 05:31:00,52.2,43.4,29.20,South,178,3.6,5.8,72,0.00,,,0.00,LWC V2.10 B1813,2013-04-21 10:31:00,
2013-04-21 05:36:00,52.2,43.4,29.20,East,84,3.1,5.4,72,0.00,,,0.00,LWC V2.10 B1813,2013-04-21 10:36:00,
2013-04-21 05:41:00,52.2,43.4,29.20,ESE,109,3.6,6.3,72,0.00,,,0.00,LWC V2.10 B1813,2013-04-21 10:41:00,
2013-04-21 05:46:00,52.0,43.2,29.20,East,94,3.6,5.8,72,0.00,,,0.00,LWC V2.10 B1813,2013-04-21 10:46:00,
2013-04-21 05:51:00,51.8,43.1,29.20,East,90,2.7,6.3,72,0.00,,,0.00,LWC V2.10 B1813,2013-04-21 10:51:00,
2013-04-21 05:56:00,51.8,43.1,29.20,ESE,102,3.1,4.0,72,0.00,,,0.00,LWC V2.10 B1813,2013-04-21 10:56:00,
2013-04-21 06:01:00,51.8,43.1,29.20,SE,130,4.0,4.9,72,0.00,,,0.00,LWC V2.10 B1813,2013-04-21 11:01:00,
2013-04-21 06:06:00,51.8,43.1,29.20,ESE,103,2.7,8.1,72,0.00,,,0.00,LWC V2.10 B1813,2013-04-21 11:06:00,
2013-04-21 06:11:00,51.8,43.1,29.20,East,100,4.0,7.6,72,0.00,,,0.00,LWC V2.10 B1813,2013-04-21 11:11:00,
2013-04-21 06:16:00,51.8,43.1,29.20,East,97,4.9,8.1,72,0.00,,,0.00,LWC V2.10 B1813,2013-04-21 11:16:00,
2013-04-21 06:21:00,51.8,43.1,29.20,ESE,117,5.4,5.4,72,0.00,,,0.00,LWC V2.10 B1813,2013-04-21 11:21:00,
2013-04-21 06:26:00,51.8,43.1,29.20,ENE,78,3.6,5.4,72,0.00,,,0.00,LWC V2.10 B1813,2013-04-21 11:26:00,
2013-04-21 06:31:00,51.6,43.2,29.20,ENE,71,4.5,4.5,73,0.00,,,0.00,LWC V2.10 B1813,2013-04-21 11:31:00,
2013-04-21 06:36:00,51.6,43.2,29.20,ESE,117,2.7,2.7,73,0.00,,,0.00,LWC V2.10 B1813,2013-04-21 11:36:00,
2013-04-21 06:41:00,51.6,43.2,29.20,East,101,0.0,3.1,73,0.00,,,0.00,LWC V2.10 B1813,2013-04-21 11:41:00,
2013-04-21 06:46:00,51.3,42.9,29.20,East,90,3.6,4.9,73,0.00,,,0.00,LWC V2.10 B1813,2013-04-21 11:46:00,
2013-04-21 06:51:00,51.1,42.7,29.20,East,80,2.7,4.0,73,0.00,,,0.00,LWC V2.10 B1813,2013-04-21 11:51:00,
2013-04-21 06:56:00,50.9,42.9,29.20,East,85,4.0,4.0,74,0.00,,,0.00,LWC V2.10 B1813,2013-04-21 11:56:00,
2013-04-21 07:01:00,50.7,42.7,29.20,ESE,104,4.9,5.4,74,0.00,,,0.00,LWC V2.10 B1813,2013-04-21 12:01:00,
2013-04-21 07:06:00,50.7,42.7,29.20,East,85,2.7,4.9,74,0.00,,,0.00,LWC V2.10 B1813,2013-04-21 12:06:00,
2013-04-21 07:11:00,50.5,42.6,29.20,ESE,106,3.6,3.6,74,0.00,,,0.00,LWC V2.10 B1813,2013-04-21 12:11:00,
2013-04-21 07:16:00,50.7,42.7,29.20,ENE,75,3.1,6.7,74,0.00,,,0.00,LWC V2.10 B1813,2013-04-21 12:16:00,
2013-04-21 07:21:00,50.9,42.9,29.20,East,87,5.4,6.3,74,0.00,,,0.00,LWC V2.10 B1813,2013-04-21 12:21:00,
2013-04-21 07:26:00,51.3,43.3,29.20,East,92,3.1,4.0,74,0.00,,,0.00,LWC V2.10 B1813,2013-04-21 12:26:00,
2013-04-21 07:31:00,51.3,43.3,29.20,East,98,3.6,7.2,74,0.00,,,0.00,LWC V2.10 B1813,2013-04-21 12:31:00,
2013-04-21 07:36:00,51.3,43.3,29.20,East,97,3.6,5.4,74,0.00,,,0.00,LWC V2.10 B1813,2013-04-21 12:36:00,
2013-04-21 07:41:00,51.1,43.1,29.20,East,90,3.1,7.2,74,0.00,,,0.00,LWC V2.10 B1813,2013-04-21 12:41:00,
2013-04-21 07:46:00,51.3,43.3,29.20,East,95,2.7,7.2,74,0.00,,,0.00,LWC V2.10 B1813,2013-04-21 12:46:00,
2013-04-21 07:51:00,51.6,43.6,29.20,ENE,62,4.0,7.6,74,0.00,,,0.00,LWC V2.10 B1813,2013-04-21 12:51:00,
2013-04-21 07:56:00,51.8,43.8,29.20,ENE,71,3.1,4.9,74,0.00,,,0.00,LWC V2.10 B1813,2013-04-21 12:56:00,
2013-04-21 08:01:00,52.2,44.1,29.24,ESE,112,2.2,8.1,74,0.00,,,0.00,LWC V2.10 B1813,2013-04-21 13:01:00,
2013-04-21 08:06:00,52.5,44.5,29.24,East,93,6.3,6.3,74,0.00,,,0.00,LWC V2.10 B1813,2013-04-21 13:06:00,
2013-04-21 08:11:00,52.9,44.5,29.24,East,100,4.0,5.8,73,0.00,,,0.00,LWC V2.10 B1813,2013-04-21 13:11:00,
2013-04-21 08:16:00,53.4,45.0,29.24,ENE,78,5.8,5.8,73,0.00,,,0.00,LWC V2.10 B1813,2013-04-21 13:16:00,
2013-04-21 08:21:00,54.1,45.7,29.24,ESE,102,3.6,8.1,73,0.00,,,0.00,LWC V2.10 B1813,2013-04-21 13:21:00,
2013-04-21 08:26:00,54.7,45.8,29.24,East,87,3.1,6.3,72,0.00,,,0.00,LWC V2.10 B1813,2013-04-21 13:26:00,
2013-04-21 08:31:00,55.6,46.3,29.24,East,83,5.8,6.3,71,0.00,,,0.00,LWC V2.10 B1813,2013-04-21 13:31:00,
2013-04-21 08:36:00,55.8,46.1,29.24,ESE,121,5.8,8.3,70,0.00,,,0.00,LWC V2.10 B1813,2013-04-21 13:36:00,
2013-04-21 08:41:00,56.1,46.5,29.24,ESE,103,4.0,8.3,70,0.00,,,0.00,LWC V2.10 B1813,2013-04-21 13:41:00,
2013-04-21 08:46:00,56.5,46.4,29.24,ESE,107,3.1,5.4,69,0.00,,,0.00,LWC V2.10 B1813,2013-04-21 13:46:00,
2013-04-21 08:51:00,56.8,46.8,29.24,ESE,114,4.9,4.9,69,0.00,,,0.00,LWC V2.10 B1813,2013-04-21 13:51:00,
2013-04-21 08:56:00,57.2,46.7,29.24,East,83,7.6,7.6,68,0.00,,,0.00,LWC V2.10 B1813,2013-04-21 13:56:00,
2013-04-21 09:01:00,57.4,46.9,29.24,ESE,109,2.7,5.4,68,0.00,,,0.00,LWC V2.10 B1813,2013-04-21 14:01:00,
2013-04-21 09:06:00,57.9,47.4,29.24,ESE,119,8.7,8.7,68,0.00,,,0.00,LWC V2.10 B1813,2013-04-21 14:06:00,
2013-04-21 09:11:00,58.1,47.2,29.24,ESE,111,6.3,10.1,67,0.00,,,0.00,LWC V2.10 B1813,2013-04-21 14:11:00,
2013-04-21 09:16:00,58.3,47.4,29.24,ESE,123,5.4,10.1,67,0.00,,,0.00,LWC V2.10 B1813,2013-04-21 14:16:00,
2013-04-21 09:21:00,58.5,47.1,29.24,SE,130,3.6,5.4,66,0.00,,,0.00,LWC V2.10 B1813,2013-04-21 14:21:00,
2013-04-21 09:26:00,58.6,47.3,29.24,ENE,65,6.3,10.5,66,0.00,,,0.00,LWC V2.10 B1813,2013-04-21 14:26:00,
2013-04-21 09:31:00,58.8,47.5,29.24,SSE,156,5.8,9.6,66,0.00,,,0.00,LWC V2.10 B1813,2013-04-21 14:31:00,
2013-04-21 09:36:00,59.2,47.4,29.24,ESE,122,5.8,8.1,65,0.00,,,0.00,LWC V2.10 B1813,2013-04-21 14:36:00,
2013-04-21 09:41:00,59.4,47.6,29.24,SE,136,8.3,8.3,65,0.00,,,0.00,LWC V2.10 B1813,2013-04-21 14:41:00,
2013-04-21 09:46:00,59.4,47.6,29.24,SE,130,8.7,8.7,65,0.00,,,0.00,LWC V2.10 B1813,2013-04-21 14:46:00,
2013-04-21 09:51:00,59.5,47.8,29.24,East,98,8.1,8.1,65,0.00,,,0.00,LWC V2.10 B1813,2013-04-21 14:51:00,
2013-04-21 09:56:00,60.1,48.3,29.24,East,92,8.3,8.7,65,0.00,,,0.00,LWC V2.10 B1813,2013-04-21 14:56:00,
2013-04-21 10:01:00,60.6,48.8,29.26,East,85,5.4,7.6,65,0.00,,,0.00,LWC V2.10 B1813,2013-04-21 15:01:00,
2013-04-21 10:06:00,61.5,49.2,29.26,ESE,106,4.0,10.1,64,0.00,,,0.00,LWC V2.10 B1813,2013-04-21 15:06:00,
2013-04-21 10:11:00,62.2,49.5,29.26,SSE,155,5.4,11.0,63,0.00,,,0.00,LWC V2.10 B1813,2013-04-21 15:11:00,
2013-04-21 10:16:00,62.8,49.6,29.26,South,173,3.6,8.7,62,0.00,,,0.00,LWC V2.10 B1813,2013-04-21 15:16:00,
2013-04-21 10:21:00,63.7,50.4,29.26,SSE,166,2.7,4.9,62,0.00,,,0.00,LWC V2.10 B1813,2013-04-21 15:21:00,
2013-04-21 10:26:00,63.9,49.7,29.26,South,175,2.7,8.3,60,0.00,,,0.00,LWC V2.10 B1813,2013-04-21 15:26:00,
2013-04-21 10:31:00,64.4,49.8,29.26,SSW,199,8.1,10.1,59,0.00,,,0.00,LWC V2.10 B1813,2013-04-21 15:31:00,
2013-04-21 10:36:00,64.2,49.6,29.26,SE,145,11.0,13.2,59,0.00,,,0.00,LWC V2.10 B1813,2013-04-21 15:36:00,
2013-04-21 10:41:00,64.6,49.5,29.26,South,172,5.8,12.3,58,0.00,,,0.00,LWC V2.10 B1813,2013-04-21 15:41:00,
2013-04-21 10:46:00,64.4,49.3,29.26,South,184,4.9,6.3,58,0.00,,,0.00,LWC V2.10 B1813,2013-04-21 15:46:00,
2013-04-21 10:51:00,64.6,49.5,29.26,SW,226,3.6,5.4,58,0.00,,,0.00,LWC V2.10 B1813,2013-04-21 15:51:00,
2013-04-21 10:56:00,64.8,49.6,29.26,SSE,162,8.1,10.1,58,0.00,,,0.00,LWC V2.10 B1813,2013-04-21 15:56:00,
2013-04-21 11:01:00,65.7,50.0,29.26,South,178,7.6,8.3,57,0.00,,,0.00,LWC V2.10 B1813,2013-04-21 16:01:00,
2013-04-21 11:06:00,66.0,50.3,29.26,SSW,206,5.4,9.6,57,0.00,,,0.00,LWC V2.10 B1813,2013-04-21 16:06:00,
2013-04-21 11:11:00,66.4,49.7,29.26,South,176,6.3,8.3,55,0.00,,,0.00,LWC V2.10 B1813,2013-04-21 16:11:00,
2013-04-21 11:16:00,66.0,49.4,29.26,South,186,4.9,7.6,55,0.00,,,0.00,LWC V2.10 B1813,2013-04-21 16:16:00,
2013-04-21 11:21:00,66.4,49.7,29.26,SE,130,3.6,4.9,55,0.00,,,0.00,LWC V2.10 B1813,2013-04-21 16:21:00,
2013-04-21 11:26:00,66.7,49.6,29.26,ESE,112,5.8,7.2,54,0.00,,,0.00,LWC V2.10 B1813,2013-04-21 16:26:00,
2013-04-21 11:31:00,67.1,49.4,29.26,SE,128,8.7,12.8,53,0.00,,,0.00,LWC V2.10 B1813,2013-04-21 16:31:00,
2013-04-21 11:36:00,67.1,48.9,29.26,SE,127,8.7,8.7,52,0.00,,,0.00,LWC V2.10 B1813,2013-04-21 16:36:00,
2013-04-21 11:41:00,67.3,49.6,29.26,East,97,3.6,10.1,53,0.00,,,0.00,LWC V2.10 B1813,2013-04-21 16:41:00,
2013-04-21 11:46:00,68.2,49.4,29.26,SE,141,4.9,8.7,51,0.00,,,0.00,LWC V2.10 B1813,2013-04-21 16:46:00,
2013-04-21 11:51:00,68.7,49.8,29.26,South,178,5.4,6.3,51,0.00,,,0.00,LWC V2.10 B1813,2013-04-21 16:51:00,
2013-04-21 11:56:00,69.1,49.6,29.26,SSE,161,7.6,7.6,50,0.00,,,0.00,LWC V2.10 B1813,2013-04-21 16:56:00,
2013-04-21 12:01:00,68.9,49.5,29.26,SE,143,5.8,12.3,50,0.00,,,0.00,LWC V2.10 B1813,2013-04-21 17:01:00,
2013-04-21 12:06:00,69.8,49.8,29.26,SE,131,4.9,6.7,49,0.00,,,0.00,LWC V2.10 B1813,2013-04-21 17:06:00,
2013-04-21 12:11:00,70.2,49.5,29.26,SE,142,8.7,8.7,48,0.00,,,0.00,LWC V2.10 B1813,2013-04-21 17:11:00,
2013-04-21 12:16:00,68.9,48.4,29.26,SW,214,6.3,8.3,48,0.00,,,0.00,LWC V2.10 B1813,2013-04-21 17:16:00,
2013-04-21 12:21:00,68.9,47.8,29.26,SW,228,4.9,6.3,47,0.00,,,0.00,LWC V2.10 B1813,2013-04-21 17:21:00,
2013-04-21 12:26:00,69.6,48.5,29.26,SSE,152,12.8,12.8,47,0.00,,,0.00,LWC V2.10 B1813,2013-04-21 17:26:00,
2013-04-21 12:31:00,70.0,48.8,29.24,East,88,5.4,10.1,47,0.00,,,0.00,LWC V2.10 B1813,2013-04-21 17:31:00,
2013-04-21 12:36:00,69.8,48.1,29.24,SSE,160,6.3,8.1,46,0.00,,,0.00,LWC V2.10 B1813,2013-04-21 17:36:00,
2013-04-21 12:41:00,69.8,48.1,29.24,SE,136,4.0,8.3,46,0.00,,,0.00,LWC V2.10 B1813,2013-04-21 17:41:00,
2013-04-21 12:46:00,71.1,49.2,29.24,South,190,10.1,10.1,46,0.00,,,0.00,LWC V2.10 B1813,2013-04-21 17:46:00,
2013-04-21 12:51:00,71.1,49.2,29.24,South,182,8.1,10.1,46,0.00,,,0.00,LWC V2.10 B1813,2013-04-21 17:51:00,
2013-04-21 12:56:00,71.1,49.2,29.24,SW,228,7.6,7.6,46,0.00,,,0.00,LWC V2.10 B1813,2013-04-21 17:56:00,
2013-04-21 13:01:00,69.8,47.5,29.24,SW,218,7.6,7.6,45,0.00,,,0.00,LWC V2.10 B1813,2013-04-21 18:01:00,
2013-04-21 13:06:00,71.4,49.5,29.24,SW,233,4.0,4.0,46,0.00,,,0.00,LWC V2.10 B1813,2013-04-21 18:06:00,
2013-04-21 13:11:00,72.9,49.7,29.24,SSW,202,5.4,8.7,44,0.00,,,0.00,LWC V2.10 B1813,2013-04-21 18:11:00,
2013-04-21 13:16:00,72.1,49.0,29.20,SSE,165,3.6,5.4,44,0.00,,,0.00,LWC V2.10 B1813,2013-04-21 18:16:00,
2013-04-21 13:21:00,72.0,48.8,29.20,ESE,102,3.6,5.8,44,0.00,,,0.00,LWC V2.10 B1813,2013-04-21 18:21:00,
2013-04-21 13:26:00,71.4,49.0,29.20,SSE,149,8.1,8.1,45,0.00,,,0.00,LWC V2.10 B1813,2013-04-21 18:26:00,
2013-04-21 13:31:00,70.7,48.3,29.20,East,92,5.4,6.3,45,0.00,,,0.00,LWC V2.10 B1813,2013-04-21 18:31:00,
2013-04-21 13:36:00,71.2,48.8,29.20,SSE,147,5.4,8.7,45,0.00,,,0.00,LWC V2.10 B1813,2013-04-21 18:36:00,
2013-04-21 13:41:00,71.8,49.3,29.20,East,93,7.2,7.2,45,0.00,,,0.00,LWC V2.10 B1813,2013-04-21 18:41:00,
2013-04-21 13:47:00,72.3,49.8,29.20,ENE,64,3.6,8.7,45,0.00,,,0.00,LWC V2.10 B1813,2013-04-21 18:47:00,
2013-04-21 13:52:00,73.0,49.8,29.20,SE,141,4.0,8.3,44,0.00,,,0.00,LWC V2.10 B1813,2013-04-21 18:52:00,
2013-04-21 13:57:00,72.1,49.0,29.20,SW,233,0.0,3.6,44,0.00,,,0.00,LWC V2.10 B1813,2013-04-21 18:57:00,
2013-04-21 14:02:00,73.0,49.8,29.20,SE,133,3.1,7.6,44,0.00,,,0.00,LWC V2.10 B1813,2013-04-21 19:02:00,
2013-04-21 14:07:00,74.1,50.8,29.20,SE,133,3.6,4.5,44,0.00,,,0.00,LWC V2.10 B1813,2013-04-21 19:07:00,
2013-04-21 14:12:00,74.5,50.5,29.20,South,186,7.6,8.3,43,0.00,,,0.00,LWC V2.10 B1813,2013-04-21 19:12:00,
2013-04-21 14:17:00,74.1,50.2,29.20,ESE,108,3.6,10.5,43,0.00,,,0.00,LWC V2.10 B1813,2013-04-21 19:17:00,
2013-04-21 14:22:00,73.9,49.4,29.20,SW,218,5.8,5.8,42,0.00,,,0.00,LWC V2.10 B1813,2013-04-21 19:22:00,
2013-04-21 14:27:00,74.1,50.2,29.20,SW,225,2.2,4.0,43,0.00,,,0.00,LWC V2.10 B1813,2013-04-21 19:27:00,
2013-04-21 14:32:00,74.8,50.2,29.18,ESE,106,6.3,7.6,42,0.00,,,0.00,LWC V2.10 B1813,2013-04-21 19:32:00,
2013-04-21 14:37:00,74.3,49.7,29.18,South,176,4.9,5.4,42,0.00,,,0.00,LWC V2.10 B1813,2013-04-21 19:37:00,
2013-04-21 14:42:00,74.5,49.9,29.18,East,84,5.4,8.3,42,0.00,,,0.00,LWC V2.10 B1813,2013-04-21 19:42:00,
2013-04-21 14:47:00,75.0,51.0,29.18,East,94,5.8,7.6,43,0.00,,,0.00,LWC V2.10 B1813,2013-04-21 19:47:00,
2013-04-21 14:52:00,74.8,50.2,29.18,SE,135,7.6,10.1,42,0.00,,,0.00,LWC V2.10 B1813,2013-04-21 19:52:00,
2013-04-21 14:57:00,74.8,50.2,29.18,East,81,3.1,8.3,42,0.00,,,0.00,LWC V2.10 B1813,2013-04-21 19:57:00,
2013-04-21 15:02:00,75.2,50.5,29.18,East,98,8.7,10.1,42,0.00,,,0.00,LWC V2.10 B1813,2013-04-21 20:02:00,
2013-04-21 15:07:00,74.5,49.9,29.18,East,98,3.6,9.6,42,0.00,,,0.00,LWC V2.10 B1813,2013-04-21 20:07:00,
2013-04-21 15:12:00,75.0,50.4,29.18,ESE,118,5.8,8.1,42,0.00,,,0.00,LWC V2.10 B1813,2013-04-21 20:12:00,
2013-04-21 15:17:00,74.8,50.2,29.18,East,101,5.8,6.3,42,0.00,,,0.00,LWC V2.10 B1813,2013-04-21 20:17:00,
2013-04-21 15:22:00,75.4,50.7,29.18,ESE,111,8.1,9.6,42,0.00,,,0.00,LWC V2.10 B1813,2013-04-21 20:22:00,
2013-04-21 15:27:00,74.8,50.2,29.18,ESE,106,5.8,8.1,42,0.00,,,0.00,LWC V2.10 B1813,2013-04-21 20:27:00,
2013-04-21 15:32:00,75.0,50.4,29.18,SSE,152,4.0,8.1,42,0.00,,,0.00,LWC V2.10 B1813,2013-04-21 20:32:00,
2013-04-21 15:37:00,75.9,51.2,29.18,East,101,3.6,6.3,42,0.00,,,0.00,LWC V2.10 B1813,2013-04-21 20:37:00,
2013-04-21 15:42:00,76.1,51.3,29.18,East,99,2.7,7.6,42,0.00,,,0.00,LWC V2.10 B1813,2013-04-21 20:42:00,
2013-04-21 15:47:00,76.3,50.8,29.15,ENE,71,5.8,8.7,41,0.00,,,0.00,LWC V2.10 B1813,2013-04-21 20:47:00,
2013-04-21 15:52:00,76.3,50.8,29.15,East,94,6.3,8.3,41,0.00,,,0.00,LWC V2.10 B1813,2013-04-21 20:52:00,
2013-04-21 15:57:00,76.1,50.7,29.15,South,172,5.8,6.3,41,0.00,,,0.00,LWC V2.10 B1813,2013-04-21 20:57:00,
2013-04-21 16:02:00,76.1,50.7,29.15,East,82,5.8,8.1,41,0.00,,,0.00,LWC V2.10 B1813,2013-04-21 21:02:00,
2013-04-21 16:07:00,75.0,50.4,29.15,NNE,17,5.4,6.3,42,0.00,,,0.00,LWC V2.10 B1813,2013-04-21 21:07:00,
2013-04-21 16:12:00,75.9,50.5,29.15,ESE,108,5.4,8.3,41,0.00,,,0.00,LWC V2.10 B1813,2013-04-21 21:12:00,
2013-04-21 16:17:00,76.5,51.6,29.15,ESE,109,8.1,8.1,42,0.00,,,0.00,LWC V2.10 B1813,2013-04-21 21:17:00,
2013-04-21 16:22:00,76.5,51.0,29.15,SE,144,8.1,10.1,41,0.00,,,0.00,LWC V2.10 B1813,2013-04-21 21:22:00,
2013-04-21 16:27:00,76.6,51.2,29.15,SE,143,4.0,7.6,41,0.00,,,0.00,LWC V2.10 B1813,2013-04-21 21:27:00,
2013-04-21 16:32:00,77.2,51.6,29.15,ESE,117,3.6,8.1,41,0.00,,,0.00,LWC V2.10 B1813,2013-04-21 21:32:00,
2013-04-21 16:37:00,76.8,51.3,29.15,SSE,153,5.8,5.8,41,0.00,,,0.00,LWC V2.10 B1813,2013-04-21 21:37:00,
2013-04-21 16:42:00,76.5,51.0,29.15,SSE,160,5.8,6.3,41,0.00,,,0.00,LWC V2.10 B1813,2013-04-21 21:42:00,
2013-04-21 16:47:00,75.6,50.2,29.15,East,87,5.4,8.7,41,0.00,,,0.00,LWC V2.10 B1813,2013-04-21 21:47:00,
2013-04-21 16:52:00,75.9,50.5,29.15,East,86,5.8,6.3,41,0.00,,,0.00,LWC V2.10 B1813,2013-04-21 21:52:00,
2013-04-21 16:57:00,76.1,50.7,29.15,SE,146,10.1,11.9,41,0.00,,,0.00,LWC V2.10 B1813,2013-04-21 21:57:00,
2013-04-21 17:02:00,75.9,50.5,29.15,ENE,70,5.4,8.3,41,0.00,,,0.00,LWC V2.10 B1813,2013-04-21 22:02:00,
2013-04-21 17:07:00,76.3,50.8,29.15,ESE,105,6.3,6.3,41,0.00,,,0.00,LWC V2.10 B1813,2013-04-21 22:07:00,
2013-04-21 17:12:00,77.0,51.5,29.15,East,94,4.0,7.6,41,0.00,,,0.00,LWC V2.10 B1813,2013-04-21 22:12:00,
2013-04-21 17:17:00,76.3,50.8,29.15,ENE,65,4.0,10.5,41,0.00,,,0.00,LWC V2.10 B1813,2013-04-21 22:17:00,
2013-04-21 17:22:00,76.5,51.0,29.15,ESE,106,4.9,7.6,41,0.00,,,0.00,LWC V2.10 B1813,2013-04-21 22:22:00,
2013-04-21 17:27:00,76.1,50.7,29.15,SE,127,5.4,5.4,41,0.00,,,0.00,LWC V2.10 B1813,2013-04-21 22:27:00,
2013-04-21 17:32:00,75.7,50.3,29.15,East,81,5.8,6.3,41,0.00,,,0.00,LWC V2.10 B1813,2013-04-21 22:32:00,
2013-04-21 17:37:00,75.9,50.5,29.15,SE,144,4.0,6.3,41,0.00,,,0.00,LWC V2.10 B1813,2013-04-21 22:37:00,
2013-04-21 17:42:00,76.5,51.0,29.15,SE,130,7.2,7.6,41,0.00,,,0.00,LWC V2.10 B1813,2013-04-21 22:42:00,
2013-04-21 17:47:00,76.1,50.7,29.15,ESE,115,3.1,8.1,41,0.00,,,0.00,LWC V2.10 B1813,2013-04-21 22:47:00,
2013-04-21 17:52:00,75.6,50.2,29.15,SE,135,6.3,8.7,41,0.00,,,0.00,LWC V2.10 B1813,2013-04-21 22:52:00,
2013-04-21 17:57:00,75.6,50.2,29.15,SE,146,2.7,7.6,41,0.00,,,0.00,LWC V2.10 B1813,2013-04-21 22:57:00,
2013-04-21 18:02:00,75.4,50.0,29.15,ESE,110,5.8,6.3,41,0.00,,,0.00,LWC V2.10 B1813,2013-04-21 23:02:00,
2013-04-21 18:07:00,75.4,50.0,29.15,SE,130,7.6,7.6,41,0.00,,,0.00,LWC V2.10 B1813,2013-04-21 23:07:00,
2013-04-21 18:12:00,75.6,50.2,29.15,East,96,5.8,5.8,41,0.00,,,0.00,LWC V2.10 B1813,2013-04-21 23:12:00,
2013-04-21 18:17:00,75.7,50.3,29.15,East,96,3.1,5.8,41,0.00,,,0.00,LWC V2.10 B1813,2013-04-21 23:17:00,
2013-04-21 18:22:00,75.2,49.9,29.15,ENE,58,3.6,9.6,41,0.00,,,0.00,LWC V2.10 B1813,2013-04-21 23:22:00,
2013-04-21 18:27:00,75.4,50.0,29.15,East,92,3.6,5.4,41,0.00,,,0.00,LWC V2.10 B1813,2013-04-21 23:27:00,
2013-04-21 18:32:00,75.2,49.9,29.15,ESE,118,2.7,10.5,41,0.00,,,0.00,LWC V2.10 B1813,2013-04-21 23:32:00,
2013-04-21 18:37:00,75.2,49.9,29.15,SSW,196,6.7,6.7,41,0.00,,,0.00,LWC V2.10 B1813,2013-04-21 23:37:00,
2013-04-21 18:42:00,74.8,50.2,29.15,East,80,3.1,5.8,42,0.00,,,0.00,LWC V2.10 B1813,2013-04-21 23:42:00,
2013-04-21 18:47:00,74.5,49.9,29.15,ESE,111,6.3,8.3,42,0.00,,,0.00,LWC V2.10 B1813,2013-04-21 23:47:00,
2013-04-21 18:52:00,74.3,49.7,29.15,East,89,2.7,8.1,42,0.00,,,0.00,LWC V2.10 B1813,2013-04-21 23:52:00,
2013-04-21 18:57:00,73.9,49.4,29.15,ENE,58,3.6,8.3,42,0.00,,,0.00,LWC V2.10 B1813,2013-04-21 23:57:00,
2013-04-21 19:02:00,73.4,48.9,29.15,South,176,6.3,6.3,42,0.00,,,0.00,LWC V2.10 B1813,2013-04-22 00:02:00,
2013-04-21 19:07:00,73.2,49.4,29.15,ENE,68,5.8,7.6,43,0.00,,,0.00,LWC V2.10 B1813,2013-04-22 00:07:00,
2013-04-21 19:12:00,72.9,49.0,29.15,ESE,106,4.0,7.6,43,0.00,,,0.00,LWC V2.10 B1813,2013-04-22 00:12:00,
2013-04-21 19:17:00,72.7,48.9,29.15,ENE,74,4.9,6.3,43,0.00,,,0.00,LWC V2.10 B1813,2013-04-22 00:17:00,
2013-04-21 19:22:00,72.5,48.7,29.15,East,79,5.8,5.8,43,0.00,,,0.00,LWC V2.10 B1813,2013-04-22 00:22:00,
2013-04-21 19:27:00,72.3,48.6,29.15,ESE,105,5.4,7.6,43,0.00,,,0.00,LWC V2.10 B1813,2013-04-22 00:27:00,
2013-04-21 19:32:00,72.1,48.4,29.15,East,79,5.4,8.3,43,0.00,,,0.00,LWC V2.10 B1813,2013-04-22 00:32:00,
2013-04-21 19:37:00,71.8,48.7,29.15,East,96,7.6,8.3,44,0.00,,,0.00,LWC V2.10 B1813,2013-04-22 00:37:00,
2013-04-21 19:42:00,71.6,48.5,29.15,ENE,76,4.0,6.3,44,0.00,,,0.00,LWC V2.10 B1813,2013-04-22 00:42:00,
2013-04-21 19:43:00,71.6,48.5,29.15,ENE,63,8.1,8.1,44,0.00,,,0.00,LWC V2.10 B1813,2013-04-22 00:43:00,
2013-04-21 19:48:00,71.4,49.0,29.15,ESE,119,2.7,5.4,45,0.00,,,0.00,LWC V2.10 B1813,2013-04-22 00:48:00,
2013-04-21 19:53:00,71.1,48.6,29.15,ENE,78,6.7,8.3,45,0.00,,,0.00,LWC V2.10 B1813,2013-04-22 00:53:00,
2013-04-21 19:58:00,71.1,48.6,29.15,East,84,4.0,6.3,45,0.00,,,0.00,LWC V2.10 B1813,2013-04-22 00:58:00,
2013-04-21 20:03:00,70.9,48.5,29.15,East,88,6.3,10.5,45,0.00,,,0.00,LWC V2.10 B1813,2013-04-22 01:03:00,
2013-04-21 20:08:00,70.7,48.9,29.15,East,91,3.6,7.6,46,0.00,,,0.00,LWC V2.10 B1813,2013-04-22 01:08:00,
2013-04-21 20:13:00,70.5,48.7,29.15,East,82,3.6,6.3,46,0.00,,,0.00,LWC V2.10 B1813,2013-04-22 01:13:00,
2013-04-21 20:18:00,70.3,48.6,29.15,East,96,5.8,5.8,46,0.00,,,0.00,LWC V2.10 B1813,2013-04-22 01:18:00,
2013-04-21 20:23:00,70.2,49.0,29.15,East,82,4.0,7.6,47,0.00,,,0.00,LWC V2.10 B1813,2013-04-22 01:23:00,
2013-04-21 20:28:00,70.2,49.0,29.15,ESE,114,4.9,7.2,47,0.00,,,0.00,LWC V2.10 B1813,2013-04-22 01:28:00,
2013-04-21 20:33:00,69.8,48.6,29.15,ESE,111,4.9,7.6,47,0.00,,,0.00,LWC V2.10 B1813,2013-04-22 01:33:00,
2013-04-21 20:38:00,69.6,49.0,29.15,ESE,122,7.6,8.7,48,0.00,,,0.00,LWC V2.10 B1813,2013-04-22 01:38:00,
2013-04-21 20:43:00,69.4,48.9,29.15,East,90,3.6,8.3,48,0.00,,,0.00,LWC V2.10 B1813,2013-04-22 01:43:00,
2013-04-21 20:48:00,69.4,48.9,29.15,East,82,4.9,4.9,48,0.00,,,0.00,LWC V2.10 B1813,2013-04-22 01:48:00,
2013-04-21 20:53:00,69.3,49.3,29.15,ENE,69,8.3,9.2,49,0.00,,,0.00,LWC V2.10 B1813,2013-04-22 01:53:00,
2013-04-21 20:58:00,69.1,49.1,29.15,ESE,107,3.1,9.6,49,0.00,,,0.00,LWC V2.10 B1813,2013-04-22 01:58:00,
2013-04-21 21:03:00,68.9,48.9,29.18,East,90,5.4,7.2,49,0.00,,,0.00,LWC V2.10 B1813,2013-04-22 02:03:00,
2013-04-21 21:08:00,68.7,49.3,29.18,East,81,3.1,6.3,50,0.00,,,0.00,LWC V2.10 B1813,2013-04-22 02:08:00,
2013-04-21 21:13:00,68.4,49.0,29.18,East,93,4.0,5.4,50,0.00,,,0.00,LWC V2.10 B1813,2013-04-22 02:13:00,
2013-04-21 21:18:00,68.2,48.8,29.18,East,96,6.3,6.3,50,0.00,,,0.00,LWC V2.10 B1813,2013-04-22 02:18:00,
2013-04-21 21:23:00,68.0,48.7,29.18,East,92,3.6,5.8,50,0.00,,,0.00,LWC V2.10 B1813,2013-04-22 02:23:00,
2013-04-21 21:28:00,68.0,49.2,29.18,East,98,4.9,11.4,51,0.00,,,0.00,LWC V2.10 B1813,2013-04-22 02:28:00,
2013-04-21 21:33:00,67.8,49.0,29.18,East,101,4.9,6.3,51,0.00,,,0.00,LWC V2.10 B1813,2013-04-22 02:33:00,
2013-04-21 21:38:00,67.8,49.0,29.18,ENE,69,3.6,9.2,51,0.00,,,0.00,LWC V2.10 B1813,2013-04-22 02:38:00,
2013-04-21 21:43:00,67.8,49.5,29.18,East,83,5.4,5.4,52,0.00,,,0.00,LWC V2.10 B1813,2013-04-22 02:43:00,
2013-04-21 21:48:00,67.8,49.5,29.18,East,86,4.0,7.2,52,0.00,,,0.00,LWC V2.10 B1813,2013-04-22 02:48:00,
2013-04-21 21:53:00,67.8,49.5,29.18,ENE,76,4.9,5.4,52,0.00,,,0.00,LWC V2.10 B1813,2013-04-22 02:53:00,
2013-04-21 21:58:00,67.6,49.4,29.18,East,99,2.7,5.8,52,0.00,,,0.00,LWC V2.10 B1813,2013-04-22 02:58:00,
2013-04-21 22:03:00,67.5,49.7,29.20,ESE,110,4.9,5.8,53,0.00,,,0.00,LWC V2.10 B1813,2013-04-22 03:03:00,
2013-04-21 22:08:00,67.1,49.4,29.20,East,94,2.2,5.8,53,0.00,,,0.00,LWC V2.10 B1813,2013-04-22 03:08:00,
2013-04-21 22:13:00,66.9,49.2,29.20,East,79,3.1,5.8,53,0.00,,,0.00,LWC V2.10 B1813,2013-04-22 03:13:00,
2013-04-21 22:18:00,66.7,49.6,29.20,East,91,2.7,3.6,54,0.00,,,0.00,LWC V2.10 B1813,2013-04-22 03:18:00,
2013-04-21 22:23:00,66.6,49.4,29.20,East,96,3.1,6.3,54,0.00,,,0.00,LWC V2.10 B1813,2013-04-22 03:23:00,
2013-04-21 22:28:00,66.4,49.7,29.20,East,99,2.7,7.2,55,0.00,,,0.00,LWC V2.10 B1813,2013-04-22 03:28:00,
2013-04-21 22:33:00,66.2,49.5,29.20,East,93,2.7,8.1,55,0.00,,,0.00,LWC V2.10 B1813,2013-04-22 03:33:00,
2013-04-21 22:38:00,66.0,49.9,29.20,East,97,5.4,6.3,56,0.00,,,0.00,LWC V2.10 B1813,2013-04-22 03:38:00,
2013-04-21 22:43:00,66.0,50.3,29.20,ESE,111,4.0,8.1,57,0.00,,,0.00,LWC V2.10 B1813,2013-04-22 03:43:00,
2013-04-21 22:48:00,66.0,50.8,29.20,East,100,5.4,8.1,58,0.00,,,0.00,LWC V2.10 B1813,2013-04-22 03:48:00,
2013-04-21 22:53:00,65.8,51.1,29.20,SE,126,3.1,7.2,59,0.00,,,0.00,LWC V2.10 B1813,2013-04-22 03:53:00,
2013-04-21 22:58:00,65.8,51.6,29.20,ESE,120,2.7,8.1,60,0.00,,,0.00,LWC V2.10 B1813,2013-04-22 03:58:00,
2013-04-21 23:01:00,65.7,51.4,29.20,East,94,2.7,6.3,60,0.00,,,0.00,LWC V2.10 B1813,2013-04-22 04:01:00,
2013-04-21 23:06:00,65.7,51.8,29.20,East,93,7.6,11.0,61,0.00,,,0.00,LWC V2.10 B1813,2013-04-22 04:06:00,
2013-04-21 23:11:00,65.5,51.7,29.20,East,101,3.1,7.2,61,0.00,,,0.00,LWC V2.10 B1813,2013-04-22 04:11:00,
2013-04-21 23:16:00,65.3,51.9,29.20,ESE,104,4.0,6.3,62,0.00,,,0.00,LWC V2.10 B1813,2013-04-22 04:16:00,
2013-04-21 23:21:00,65.1,51.8,29.20,ESE,113,3.6,7.6,62,0.00,,,0.00,LWC V2.10 B1813,2013-04-22 04:21:00,
2013-04-21 23:26:00,65.1,52.2,29.20,ESE,120,8.1,8.1,63,0.00,,,0.00,LWC V2.10 B1813,2013-04-22 04:26:00,
2013-04-21 23:31:00,64.9,52.0,29.20,ESE,111,2.7,5.4,63,0.00,,,0.00,LWC V2.10 B1813,2013-04-22 04:31:00,
2013-04-21 23:36:00,64.8,52.3,29.20,ENE,73,6.3,8.3,64,0.00,,,0.00,LWC V2.10 B1813,2013-04-22 04:36:00,
2013-04-21 23:41:00,64.8,52.3,29.20,SSE,151,4.0,8.3,64,0.00,,,0.00,LWC V2.10 B1813,2013-04-22 04:41:00,
2013-04-21 23:46:00,64.6,52.5,29.20,SSE,155,5.4,7.2,65,0.00,,,0.00,LWC V2.10 B1813,2013-04-22 04:46:00,
2013-04-21 23:51:00,64.4,52.4,29.20,East,96,4.0,8.1,65,0.00,,,0.00,LWC V2.10 B1813,2013-04-22 04:51:00,
2013-04-21 23:56:00,64.2,52.6,29.20,ESE,113,5.4,10.5,66,0.00,,,0.00,LWC V2.10 B1813,2013-04-22 04:56:00,